BEL75Y LGKO-EBBR

Flight info

Callsign BEL75Y
Flight time 3h 18m
Altitude 36000
Route LARKI UL609 MES DCT DISOR DCT LONTA UL608 DOLEV DCT YUYUH DCT KOMAR DCT KUSIB DCT GORPA DCT DOL DCT NIPEL DCT ERKIR DCT BABEG DCT IDOVI Z104 GESLO N852 LNO
Aircraft A20N/M-DE3FGHIJ1LORVWY/HB1G1

Departure

Time 2026-05-01 08:15
Airport Kos International Airport "Ippokratis" (LGKO)

Arrival

Time 2026-05-01 11:33
Airport Brussels Airport (EBBR)
Time Latitude Longitude Altitude Speed Heading
2026-05-01 08:02 36.80134 27.08921 422 ft 0 kts 28°
2026-05-01 08:05 36.80130 27.08918 422 ft 2 kts 28°
2026-05-01 08:06 36.80108 27.08893 420 ft 2 kts 68°
2026-05-01 08:06 36.80107 27.08856 419 ft 2 kts 114°
2026-05-01 08:07 36.80122 27.08834 419 ft 1 kts 149°
2026-05-01 08:07 36.80127 27.08831 419 ft 0 kts 148°
2026-05-01 08:09 36.80120 27.08836 419 ft 2 kts 148°
2026-05-01 08:09 36.80096 27.08854 419 ft 5 kts 147°
2026-05-01 08:10 36.80003 27.08928 417 ft 10 kts 148°
2026-05-01 08:10 36.79843 27.08981 414 ft 14 kts 178°
2026-05-01 08:11 36.79619 27.08995 410 ft 17 kts 162°
2026-05-01 08:11 36.79387 27.09168 404 ft 21 kts 148°
2026-05-01 08:12 36.79114 27.09381 394 ft 24 kts 148°
2026-05-01 08:12 36.78960 27.09500 388 ft 26 kts 148°
2026-05-01 08:12 36.78649 27.09742 378 ft 16 kts 148°
2026-05-01 08:13 36.78589 27.09767 377 ft 6 kts 193°
2026-05-01 08:13 36.78548 27.09789 375 ft 5 kts 104°
2026-05-01 08:13 36.78590 27.09788 377 ft 2 kts 328°
2026-05-01 08:14 36.78601 27.09779 377 ft 4 kts 328°
2026-05-01 08:14 36.78748 27.09666 382 ft 57 kts 328°
2026-05-01 08:14 36.79275 27.09255 400 ft 118 kts 327°
2026-05-01 08:14 36.80117 27.08599 499 ft 157 kts 329°
2026-05-01 08:15 36.81024 27.07890 1049 ft 157 kts 329°
2026-05-01 08:15 36.81734 27.05502 2252 ft 171 kts 258°
2026-05-01 08:15 36.81538 27.04015 2676 ft 180 kts 283°
2026-05-01 08:16 36.82197 27.02704 3115 ft 186 kts 324°
2026-05-01 08:16 36.83319 27.01798 3585 ft 200 kts 327°
2026-05-01 08:16 36.84528 27.00824 4014 ft 217 kts 326°
2026-05-01 08:16 36.85856 26.99714 4397 ft 239 kts 325°
2026-05-01 08:17 36.87764 26.98068 5172 ft 258 kts 324°
2026-05-01 08:17 36.88750 26.97207 5699 ft 262 kts 324°
2026-05-01 08:17 36.90245 26.95893 6557 ft 264 kts 323°
2026-05-01 08:17 36.91734 26.94576 7419 ft 266 kts 322°
2026-05-01 08:18 36.93249 26.93229 8250 ft 268 kts 321°
2026-05-01 08:18 36.96292 26.90516 9866 ft 273 kts 320°
2026-05-01 08:19 36.99465 26.87660 10969 ft 296 kts 320°
2026-05-01 08:19 37.01201 26.86092 11334 ft 313 kts 320°
2026-05-01 08:19 37.03001 26.84474 11915 ft 321 kts 320°
2026-05-01 08:19 37.04819 26.82847 12652 ft 324 kts 320°
2026-05-01 08:20 37.06649 26.81207 13391 ft 326 kts 320°
2026-05-01 08:20 37.08477 26.79566 14076 ft 329 kts 320°
2026-05-01 08:20 37.10351 26.77879 14753 ft 332 kts 320°
2026-05-01 08:20 37.12232 26.76198 15406 ft 335 kts 320°
2026-05-01 08:21 37.14152 26.74480 16037 ft 339 kts 320°
2026-05-01 08:21 37.16071 26.72760 16631 ft 343 kts 320°
2026-05-01 08:21 37.17998 26.71029 17231 ft 346 kts 320°
2026-05-01 08:21 37.19982 26.69244 17847 ft 349 kts 319°
2026-05-01 08:22 37.21963 26.67457 18433 ft 352 kts 319°
2026-05-01 08:22 37.23945 26.65669 19024 ft 355 kts 319°
2026-05-01 08:22 37.25952 26.63855 19601 ft 357 kts 319°
2026-05-01 08:22 37.27973 26.62028 20175 ft 360 kts 319°
2026-05-01 08:23 37.30018 26.60176 20730 ft 362 kts 319°
2026-05-01 08:23 37.32061 26.58324 21279 ft 365 kts 319°
2026-05-01 08:23 37.34107 26.56467 21806 ft 367 kts 319°
2026-05-01 08:23 37.36195 26.54571 22347 ft 369 kts 319°
2026-05-01 08:24 37.38267 26.52690 22887 ft 370 kts 319°
2026-05-01 08:24 37.40352 26.50793 23406 ft 372 kts 319°
2026-05-01 08:24 37.42456 26.48879 23917 ft 373 kts 318°
2026-05-01 08:24 37.44569 26.46955 24395 ft 375 kts 318°
2026-05-01 08:25 37.46681 26.45033 24869 ft 377 kts 318°
2026-05-01 08:25 37.48798 26.43103 25338 ft 378 kts 318°
2026-05-01 08:25 37.50937 26.41151 25825 ft 379 kts 318°
2026-05-01 08:25 37.53092 26.39185 26260 ft 380 kts 318°
2026-05-01 08:26 37.55245 26.37216 26518 ft 386 kts 318°
2026-05-01 08:26 37.57437 26.35209 26852 ft 389 kts 318°
2026-05-01 08:26 37.59627 26.33197 27284 ft 390 kts 317°
2026-05-01 08:26 37.61792 26.31204 27662 ft 392 kts 317°
2026-05-01 08:27 37.63997 26.29173 28066 ft 393 kts 317°
2026-05-01 08:27 37.66210 26.27137 28458 ft 394 kts 317°
2026-05-01 08:27 37.68447 26.25079 28818 ft 396 kts 317°
2026-05-01 08:27 37.70674 26.23033 29209 ft 396 kts 317°
2026-05-01 08:28 37.72904 26.20980 29549 ft 397 kts 317°
2026-05-01 08:28 37.75135 26.18929 29959 ft 396 kts 317°
2026-05-01 08:28 37.77341 26.16898 30401 ft 394 kts 317°
2026-05-01 08:28 37.79562 26.14851 30829 ft 392 kts 317°
2026-05-01 08:29 37.81743 26.12840 31270 ft 389 kts 317°
2026-05-01 08:29 37.83914 26.10836 31682 ft 386 kts 317°
2026-05-01 08:29 37.86106 26.08811 32060 ft 384 kts 317°
2026-05-01 08:29 37.88245 26.06835 32417 ft 382 kts 317°
2026-05-01 08:30 37.90383 26.04858 32737 ft 381 kts 317°
2026-05-01 08:30 37.92521 26.02876 33071 ft 379 kts 317°
2026-05-01 08:30 37.94637 26.00917 33370 ft 378 kts 317°
2026-05-01 08:30 37.96755 25.98954 33674 ft 376 kts 317°
2026-05-01 08:31 37.98855 25.97006 33945 ft 375 kts 316°
2026-05-01 08:31 38.00982 25.95029 34210 ft 374 kts 316°
2026-05-01 08:31 38.03073 25.93084 34424 ft 373 kts 316°
2026-05-01 08:31 38.05148 25.91154 34596 ft 374 kts 316°
2026-05-01 08:32 38.07245 25.89202 34752 ft 375 kts 316°
2026-05-01 08:32 38.09349 25.87238 34936 ft 374 kts 316°
2026-05-01 08:32 38.11466 25.85271 35108 ft 375 kts 317°
2026-05-01 08:32 38.13571 25.83323 35257 ft 376 kts 316°
2026-05-01 08:33 38.15671 25.81377 35403 ft 377 kts 316°
2026-05-01 08:33 38.17791 25.79404 35560 ft 377 kts 317°
2026-05-01 08:33 38.19903 25.77435 35703 ft 377 kts 317°
2026-05-01 08:33 38.22030 25.75450 35827 ft 378 kts 317°
2026-05-01 08:34 38.24152 25.73469 35944 ft 379 kts 317°
2026-05-01 08:34 38.26281 25.71475 36053 ft 381 kts 317°
2026-05-01 08:34 38.28404 25.69486 36198 ft 381 kts 317°
2026-05-01 08:34 38.30550 25.67473 36364 ft 381 kts 317°
2026-05-01 08:35 38.32681 25.65474 36518 ft 381 kts 317°
2026-05-01 08:35 38.34816 25.63468 36630 ft 382 kts 317°
2026-05-01 08:35 38.36940 25.61471 36751 ft 382 kts 317°
2026-05-01 08:35 38.39070 25.59469 36868 ft 383 kts 317°
2026-05-01 08:36 38.41235 25.57431 36997 ft 384 kts 317°
2026-05-01 08:36 38.43376 25.55414 37116 ft 384 kts 317°
2026-05-01 08:36 38.45514 25.53397 37216 ft 385 kts 317°
2026-05-01 08:37 38.49813 25.49337 37401 ft 386 kts 317°
2026-05-01 08:37 38.51963 25.47305 37505 ft 386 kts 317°
2026-05-01 08:37 38.54143 25.45243 37607 ft 387 kts 317°
2026-05-01 08:38 38.58478 25.41138 37809 ft 387 kts 317°
2026-05-01 08:38 38.60647 25.39082 37912 ft 388 kts 317°
2026-05-01 08:38 38.62816 25.37025 38005 ft 388 kts 317°
2026-05-01 08:39 38.67137 25.32911 38104 ft 390 kts 317°
2026-05-01 08:39 38.71475 25.28763 38113 ft 389 kts 317°
2026-05-01 08:40 38.77974 25.22552 38119 ft 390 kts 317°
2026-05-01 08:40 38.82312 25.18405 38117 ft 389 kts 317°
2026-05-01 08:41 38.86646 25.14258 38128 ft 389 kts 317°
2026-05-01 08:41 38.90973 25.10115 38119 ft 390 kts 317°
2026-05-01 08:42 38.95335 25.05927 38136 ft 390 kts 317°
2026-05-01 08:42 38.99701 25.01730 38132 ft 391 kts 317°
2026-05-01 08:43 39.04030 24.97563 38140 ft 392 kts 317°
2026-05-01 08:43 39.08397 24.93355 38154 ft 392 kts 317°
2026-05-01 08:44 39.12761 24.89154 38145 ft 391 kts 317°
2026-05-01 08:44 39.17126 24.84957 38163 ft 393 kts 317°
2026-05-01 08:45 39.21495 24.80740 38154 ft 393 kts 317°
2026-05-01 08:45 39.25863 24.76506 38164 ft 394 kts 317°
2026-05-01 08:46 39.30254 24.72241 38185 ft 394 kts 317°
2026-05-01 08:46 39.34634 24.67982 38177 ft 393 kts 317°
2026-05-01 08:47 39.38996 24.63729 38203 ft 394 kts 317°
2026-05-01 08:47 39.43366 24.59462 38195 ft 394 kts 317°
2026-05-01 08:48 39.47728 24.55195 38189 ft 394 kts 317°
2026-05-01 08:48 39.52159 24.50853 38190 ft 395 kts 317°
2026-05-01 08:49 39.56527 24.46568 38198 ft 395 kts 317°
2026-05-01 08:49 39.60875 24.42294 38203 ft 395 kts 317°
2026-05-01 08:50 39.65239 24.37999 38209 ft 395 kts 317°
2026-05-01 08:50 39.69621 24.33673 38203 ft 396 kts 317°
2026-05-01 08:51 39.73999 24.29323 38207 ft 397 kts 317°
2026-05-01 08:51 39.78389 24.24965 38213 ft 397 kts 317°
2026-05-01 08:52 39.82771 24.20616 38217 ft 398 kts 317°
2026-05-01 08:52 39.87183 24.16237 38215 ft 398 kts 317°
2026-05-01 08:53 39.91591 24.11853 38209 ft 398 kts 317°
2026-05-01 08:53 39.95969 24.07493 38214 ft 400 kts 317°
2026-05-01 08:54 40.00407 24.03065 38224 ft 400 kts 317°
2026-05-01 08:54 40.04850 23.98628 38224 ft 400 kts 317°
2026-05-01 08:55 40.09253 23.94220 38222 ft 401 kts 317°
2026-05-01 08:55 40.13694 23.89787 38225 ft 401 kts 318°
2026-05-01 08:56 40.18130 23.85358 38221 ft 401 kts 318°
2026-05-01 08:56 40.22542 23.80932 38224 ft 401 kts 317°
2026-05-01 08:57 40.26973 23.76470 38226 ft 401 kts 317°
2026-05-01 08:57 40.31406 23.71997 38222 ft 402 kts 317°
2026-05-01 08:58 40.35837 23.67516 38222 ft 402 kts 318°
2026-05-01 08:58 40.40255 23.63042 38218 ft 402 kts 318°
2026-05-01 08:59 40.44679 23.58552 38207 ft 403 kts 318°
2026-05-01 08:59 40.49098 23.54061 38206 ft 403 kts 318°
2026-05-01 09:00 40.53549 23.49531 38191 ft 404 kts 318°
2026-05-01 09:00 40.57993 23.44998 38190 ft 404 kts 318°
2026-05-01 09:01 40.62441 23.40453 38184 ft 405 kts 318°
2026-05-01 09:01 40.66907 23.35884 38186 ft 405 kts 319°
2026-05-01 09:02 40.71343 23.31319 38191 ft 405 kts 317°
2026-05-01 09:02 40.75799 23.26722 38196 ft 406 kts 318°
2026-05-01 09:03 40.80222 23.22163 38208 ft 406 kts 318°
2026-05-01 09:03 40.84678 23.17567 38208 ft 406 kts 318°
2026-05-01 09:04 40.89164 23.12933 38207 ft 407 kts 318°
2026-05-01 09:04 40.93628 23.08316 38211 ft 407 kts 318°
2026-05-01 09:05 40.98087 23.03693 38208 ft 408 kts 318°
2026-05-01 09:05 41.02554 22.99057 38210 ft 407 kts 318°
2026-05-01 09:06 41.07013 22.94415 38215 ft 408 kts 318°
2026-05-01 09:06 41.11464 22.89776 38220 ft 408 kts 319°
2026-05-01 09:07 41.15921 22.85144 38222 ft 406 kts 319°
2026-05-01 09:07 41.20381 22.80483 38224 ft 407 kts 319°
2026-05-01 09:08 41.24708 22.75655 38224 ft 406 kts 314°
2026-05-01 09:08 41.28643 22.70291 38223 ft 406 kts 310°
2026-05-01 09:09 41.32451 22.64741 38221 ft 406 kts 310°
2026-05-01 09:09 41.36228 22.59206 38214 ft 405 kts 310°
2026-05-01 09:10 41.40011 22.53655 38209 ft 405 kts 310°
2026-05-01 09:10 41.43786 22.48103 38195 ft 406 kts 310°
2026-05-01 09:11 41.47563 22.42541 38188 ft 406 kts 310°
2026-05-01 09:11 41.51337 22.36970 38185 ft 406 kts 310°
2026-05-01 09:12 41.55117 22.31367 38189 ft 405 kts 309°
2026-05-01 09:12 41.58872 22.25776 38191 ft 405 kts 310°
2026-05-01 09:13 41.62629 22.20185 38200 ft 405 kts 310°
2026-05-01 09:13 41.66402 22.14572 38203 ft 405 kts 310°
2026-05-01 09:14 41.70160 22.08968 38206 ft 406 kts 310°
2026-05-01 09:14 41.73918 22.03355 38211 ft 407 kts 310°
2026-05-01 09:15 41.77681 21.97722 38215 ft 407 kts 310°
2026-05-01 09:15 41.81446 21.92077 38218 ft 407 kts 310°
2026-05-01 09:16 41.85212 21.86422 38219 ft 406 kts 310°
2026-05-01 09:17 41.90859 21.77923 38226 ft 407 kts 310°
2026-05-01 09:17 41.96507 21.69390 38231 ft 408 kts 310°
2026-05-01 09:18 42.02163 21.60818 38232 ft 409 kts 310°
2026-05-01 09:19 42.07787 21.52267 38235 ft 408 kts 311°
2026-05-01 09:20 42.13450 21.43658 38224 ft 409 kts 310°
2026-05-01 09:21 42.20922 21.32066 38221 ft 409 kts 309°
2026-05-01 09:21 42.26444 21.23278 38225 ft 408 kts 309°
2026-05-01 09:22 42.33787 21.11575 38217 ft 410 kts 309°
2026-05-01 09:23 42.39296 21.02767 38216 ft 411 kts 309°
2026-05-01 09:24 42.44831 20.93892 38228 ft 411 kts 309°
2026-05-01 09:25 42.52222 20.82000 38233 ft 410 kts 310°
2026-05-01 09:26 42.57698 20.73154 38236 ft 411 kts 310°
2026-05-01 09:26 42.63200 20.64239 38235 ft 411 kts 310°
2026-05-01 09:27 42.68728 20.55250 38232 ft 412 kts 310°
2026-05-01 09:28 42.72404 20.49256 38235 ft 413 kts 310°
2026-05-01 09:28 42.76086 20.43237 38211 ft 413 kts 310°
2026-05-01 09:29 42.81594 20.34202 38161 ft 413 kts 309°
2026-05-01 09:30 42.87107 20.25155 38120 ft 413 kts 309°
2026-05-01 09:30 42.92616 20.16102 38127 ft 414 kts 310°
2026-05-01 09:31 42.96288 20.10047 38145 ft 416 kts 310°
2026-05-01 09:32 43.01808 20.00916 38152 ft 416 kts 310°
2026-05-01 09:32 43.07311 19.91781 38156 ft 415 kts 310°
2026-05-01 09:33 43.10984 19.85671 38179 ft 415 kts 310°
2026-05-01 09:34 43.16504 19.76502 38187 ft 415 kts 310°
2026-05-01 09:34 43.22002 19.67280 38201 ft 417 kts 310°
2026-05-01 09:35 43.27631 19.58191 38184 ft 417 kts 313°
2026-05-01 09:36 43.31466 19.52227 38179 ft 417 kts 312°
2026-05-01 09:36 43.35281 19.46242 38188 ft 417 kts 312°
2026-05-01 09:37 43.39088 19.40234 38189 ft 417 kts 312°
2026-05-01 09:37 43.44777 19.31199 38205 ft 416 kts 312°
2026-05-01 09:38 43.50504 19.22056 38217 ft 417 kts 312°
2026-05-01 09:39 43.56181 19.12988 38230 ft 417 kts 312°
2026-05-01 09:39 43.59972 19.06922 38235 ft 418 kts 312°
2026-05-01 09:40 43.65654 18.97801 38251 ft 418 kts 313°
2026-05-01 09:41 43.69465 18.91673 38250 ft 418 kts 313°
2026-05-01 09:41 43.75136 18.82522 38248 ft 417 kts 313°
2026-05-01 09:42 43.78914 18.76413 38239 ft 417 kts 313°
2026-05-01 09:43 43.86440 18.64203 38241 ft 418 kts 313°
2026-05-01 09:43 43.90223 18.58048 38230 ft 418 kts 313°
2026-05-01 09:44 43.95890 18.48799 38248 ft 419 kts 313°
2026-05-01 09:45 43.99646 18.42653 38266 ft 419 kts 313°
2026-05-01 09:45 44.05304 18.33367 38272 ft 418 kts 313°
2026-05-01 09:46 44.09040 18.27186 38282 ft 418 kts 313°
2026-05-01 09:46 44.12808 18.20984 38278 ft 418 kts 313°
2026-05-01 09:47 44.16581 18.14783 38272 ft 419 kts 313°
2026-05-01 09:47 44.20355 18.08550 38273 ft 419 kts 313°
2026-05-01 09:48 44.24120 18.02305 38273 ft 420 kts 313°
2026-05-01 09:48 44.27869 17.96066 38292 ft 419 kts 313°
2026-05-01 09:49 44.31614 17.89828 38294 ft 419 kts 313°
2026-05-01 09:49 44.35356 17.83577 38294 ft 419 kts 313°
2026-05-01 09:50 44.39103 17.77304 38292 ft 419 kts 313°
2026-05-01 09:50 44.42849 17.71019 38294 ft 419 kts 313°
2026-05-01 09:51 44.46582 17.64738 38283 ft 419 kts 313°
2026-05-01 09:51 44.50325 17.58432 38286 ft 419 kts 314°
2026-05-01 09:52 44.54019 17.52191 38275 ft 419 kts 314°
2026-05-01 09:52 44.57745 17.45883 38296 ft 419 kts 314°
2026-05-01 09:53 44.61460 17.39575 38303 ft 419 kts 314°
2026-05-01 09:53 44.65165 17.33272 38299 ft 420 kts 313°
2026-05-01 09:54 44.68887 17.26901 38324 ft 420 kts 313°
2026-05-01 09:54 44.72604 17.20532 38333 ft 419 kts 313°
2026-05-01 09:55 44.76335 17.14139 38332 ft 419 kts 313°
2026-05-01 09:55 44.80011 17.07828 38330 ft 420 kts 313°
2026-05-01 09:56 44.83714 17.01452 38331 ft 420 kts 313°
2026-05-01 09:56 44.87403 16.95084 38337 ft 420 kts 314°
2026-05-01 09:57 44.91071 16.88738 38343 ft 419 kts 314°
2026-05-01 09:57 44.94743 16.82373 38362 ft 419 kts 314°
2026-05-01 09:58 44.98428 16.75985 38352 ft 420 kts 314°
2026-05-01 09:58 45.02105 16.69587 38345 ft 422 kts 314°
2026-05-01 09:59 45.05765 16.63184 38351 ft 421 kts 314°
2026-05-01 09:59 45.09447 16.56716 38351 ft 421 kts 314°
2026-05-01 10:00 45.13061 16.50380 38352 ft 421 kts 314°
2026-05-01 10:00 45.16749 16.43947 38341 ft 421 kts 314°
2026-05-01 10:01 45.20427 16.37533 38337 ft 420 kts 314°
2026-05-01 10:01 45.24112 16.31045 38341 ft 422 kts 314°
2026-05-01 10:02 45.27794 16.24522 38341 ft 422 kts 314°
2026-05-01 10:02 45.31450 16.18038 38343 ft 422 kts 314°
2026-05-01 10:03 45.35122 16.11517 38358 ft 423 kts 314°
2026-05-01 10:03 45.38800 16.04976 38356 ft 423 kts 314°
2026-05-01 10:04 45.42480 15.98411 38350 ft 423 kts 314°
2026-05-01 10:04 45.46147 15.91856 38349 ft 423 kts 314°
2026-05-01 10:05 45.49822 15.85267 38359 ft 424 kts 314°
2026-05-01 10:05 45.53469 15.78717 38350 ft 424 kts 314°
2026-05-01 10:06 45.57137 15.72114 38347 ft 425 kts 314°
2026-05-01 10:06 45.60798 15.65503 38338 ft 424 kts 314°
2026-05-01 10:07 45.64441 15.58909 38341 ft 424 kts 314°
2026-05-01 10:07 45.68078 15.52306 38350 ft 424 kts 314°
2026-05-01 10:08 45.73542 15.42338 38355 ft 425 kts 315°
2026-05-01 10:09 45.77184 15.35692 38355 ft 425 kts 315°
2026-05-01 10:09 45.80842 15.29016 38348 ft 425 kts 314°
2026-05-01 10:10 45.84494 15.22314 38350 ft 424 kts 314°
2026-05-01 10:10 45.89914 15.12338 38339 ft 424 kts 314°
2026-05-01 10:11 45.93570 15.05583 38327 ft 425 kts 314°
2026-05-01 10:11 45.97193 14.98879 38336 ft 426 kts 314°
2026-05-01 10:12 46.00834 14.92112 38348 ft 426 kts 314°
2026-05-01 10:13 46.06245 14.82020 38368 ft 425 kts 314°
2026-05-01 10:13 46.09870 14.75301 38334 ft 423 kts 315°
2026-05-01 10:14 46.15416 14.65323 38394 ft 423 kts 315°
2026-05-01 10:14 46.19050 14.58723 38379 ft 423 kts 315°
2026-05-01 10:15 46.22725 14.52007 38360 ft 423 kts 315°
2026-05-01 10:15 46.26380 14.45298 38381 ft 423 kts 315°
2026-05-01 10:16 46.30622 14.37484 38374 ft 422 kts 315°
2026-05-01 10:17 46.35456 14.28528 38347 ft 423 kts 315°
2026-05-01 10:17 46.40881 14.18438 38323 ft 422 kts 315°
2026-05-01 10:18 46.46275 14.08385 38341 ft 423 kts 315°
2026-05-01 10:19 46.49907 14.01616 38326 ft 423 kts 315°
2026-05-01 10:19 46.53520 13.94928 38332 ft 422 kts 315°
2026-05-01 10:20 46.58916 13.84869 38342 ft 422 kts 315°
2026-05-01 10:20 46.62513 13.78130 38333 ft 422 kts 315°
2026-05-01 10:21 46.67911 13.67974 38325 ft 422 kts 315°
2026-05-01 10:22 46.73281 13.57829 38332 ft 421 kts 315°
2026-05-01 10:23 46.78618 13.47710 38311 ft 421 kts 315°
2026-05-01 10:23 46.83970 13.37533 38322 ft 422 kts 315°
2026-05-01 10:24 46.91098 13.23866 38332 ft 422 kts 314°
2026-05-01 10:25 46.98795 13.09071 38294 ft 422 kts 313°
2026-05-01 10:26 47.01746 13.03377 38290 ft 422 kts 313°
2026-05-01 10:27 47.08831 12.89666 38312 ft 423 kts 313°
2026-05-01 10:28 47.14162 12.79359 38327 ft 422 kts 314°
2026-05-01 10:28 47.19465 12.69049 38350 ft 423 kts 313°
2026-05-01 10:29 47.24770 12.58665 38359 ft 422 kts 313°
2026-05-01 10:30 47.31826 12.44784 38342 ft 423 kts 313°
2026-05-01 10:31 47.38884 12.30807 38340 ft 424 kts 312°
2026-05-01 10:32 47.44153 12.20301 38337 ft 424 kts 311°
2026-05-01 10:33 47.51160 12.06280 38335 ft 424 kts 311°
2026-05-01 10:34 47.56456 11.95749 38326 ft 423 kts 312°
2026-05-01 10:34 47.58213 11.92291 38489 ft 424 kts 312°
2026-05-01 10:34 47.59976 11.88809 38384 ft 422 kts 312°
2026-05-01 10:35 47.65248 11.78331 38328 ft 422 kts 312°
2026-05-01 10:35 47.69312 11.70210 38322 ft 422 kts 311°
2026-05-01 10:36 47.74578 11.59647 38318 ft 423 kts 311°
2026-05-01 10:37 47.77480 11.53811 38312 ft 422 kts 311°
2026-05-01 10:37 47.82710 11.43256 38309 ft 422 kts 311°
2026-05-01 10:38 47.86195 11.36196 38309 ft 422 kts 311°
2026-05-01 10:38 47.90220 11.27997 38314 ft 422 kts 310°
2026-05-01 10:39 47.93705 11.20883 38318 ft 423 kts 310°
2026-05-01 10:39 47.97184 11.13771 38320 ft 423 kts 310°
2026-05-01 10:40 48.00054 11.07896 38319 ft 423 kts 310°
2026-05-01 10:40 48.03512 11.00802 38320 ft 422 kts 310°
2026-05-01 10:41 48.06978 10.93673 38318 ft 422 kts 310°
2026-05-01 10:42 48.12745 10.81804 38320 ft 422 kts 310°
2026-05-01 10:42 48.15615 10.75898 38321 ft 423 kts 310°
2026-05-01 10:43 48.19062 10.68768 38323 ft 423 kts 309°
2026-05-01 10:43 48.22507 10.61604 38321 ft 423 kts 309°
2026-05-01 10:44 48.25940 10.54441 38311 ft 423 kts 309°
2026-05-01 10:44 48.29372 10.47259 38305 ft 422 kts 309°
2026-05-01 10:45 48.33350 10.38911 38304 ft 422 kts 309°
2026-05-01 10:45 48.36754 10.31737 38302 ft 422 kts 308°
2026-05-01 10:46 48.39593 10.25722 38300 ft 423 kts 308°
2026-05-01 10:46 48.42995 10.18510 38302 ft 423 kts 308°
2026-05-01 10:47 48.46954 10.10105 38304 ft 423 kts 308°
2026-05-01 10:47 48.49795 10.04055 38301 ft 423 kts 308°
2026-05-01 10:48 48.53743 9.95630 38299 ft 423 kts 308°
2026-05-01 10:48 48.57132 9.88370 38302 ft 422 kts 308°
2026-05-01 10:49 48.60494 9.81138 38303 ft 423 kts 308°
2026-05-01 10:49 48.63878 9.73847 38299 ft 423 kts 308°
2026-05-01 10:50 48.67374 9.66672 38301 ft 422 kts 312°
2026-05-01 10:50 48.70589 9.61206 38303 ft 420 kts 316°
2026-05-01 10:51 48.74607 9.54738 38303 ft 420 kts 316°
2026-05-01 10:51 48.79285 9.47177 38308 ft 420 kts 315°
2026-05-01 10:52 48.83261 9.40717 38310 ft 420 kts 315°
2026-05-01 10:52 48.87265 9.34188 38308 ft 421 kts 314°
2026-05-01 10:53 48.91253 9.27638 38306 ft 421 kts 314°
2026-05-01 10:53 48.95161 9.21210 38302 ft 421 kts 314°
2026-05-01 10:54 48.99145 9.14655 38301 ft 421 kts 314°
2026-05-01 10:54 49.03112 9.08117 38304 ft 421 kts 314°
2026-05-01 10:55 49.07095 9.01535 38306 ft 421 kts 314°
2026-05-01 10:55 49.11041 8.95005 38310 ft 421 kts 314°
2026-05-01 10:56 49.14980 8.88510 38308 ft 421 kts 314°
2026-05-01 10:56 49.18978 8.81880 38307 ft 421 kts 314°
2026-05-01 10:57 49.22866 8.75400 38311 ft 421 kts 314°
2026-05-01 10:57 49.26855 8.68728 38311 ft 421 kts 314°
2026-05-01 10:58 49.30821 8.62075 38307 ft 421 kts 314°
2026-05-01 10:58 49.34774 8.55428 38307 ft 421 kts 314°
2026-05-01 10:59 49.38728 8.48761 38307 ft 421 kts 314°
2026-05-01 10:59 49.42660 8.42112 38307 ft 421 kts 314°
2026-05-01 11:00 49.45939 8.36554 38308 ft 421 kts 314°
2026-05-01 11:00 49.50524 8.28742 38313 ft 421 kts 313°
2026-05-01 11:01 49.54458 8.22011 38312 ft 421 kts 311°
2026-05-01 11:01 49.57957 8.14788 38307 ft 423 kts 306°
2026-05-01 11:02 49.61311 8.07366 38301 ft 423 kts 306°
2026-05-01 11:02 49.64658 7.99958 38300 ft 423 kts 306°
2026-05-01 11:03 49.68042 7.92471 38305 ft 423 kts 306°
2026-05-01 11:03 49.71402 7.85028 38309 ft 423 kts 306°
2026-05-01 11:04 49.74746 7.77600 38298 ft 423 kts 306°
2026-05-01 11:04 49.78090 7.70157 38308 ft 423 kts 306°
2026-05-01 11:05 49.81451 7.62652 38302 ft 423 kts 306°
2026-05-01 11:05 49.84801 7.55151 38308 ft 424 kts 306°
2026-05-01 11:06 49.88161 7.47605 38311 ft 424 kts 306°
2026-05-01 11:06 49.91502 7.40081 38311 ft 424 kts 306°
2026-05-01 11:07 49.96493 7.28784 38314 ft 424 kts 304°
2026-05-01 11:07 49.99829 7.21197 38315 ft 424 kts 304°
2026-05-01 11:08 50.03162 7.13605 38308 ft 424 kts 304°
2026-05-01 11:09 50.08134 7.02250 38306 ft 425 kts 304°
2026-05-01 11:09 50.11463 6.94635 38304 ft 424 kts 305°
2026-05-01 11:10 50.16463 6.83223 38304 ft 424 kts 304°
2026-05-01 11:10 50.19789 6.75565 38302 ft 425 kts 304°
2026-05-01 11:11 50.23108 6.67887 38291 ft 425 kts 304°
2026-05-01 11:11 50.26261 6.60175 37871 ft 422 kts 299°
2026-05-01 11:12 50.27631 6.56093 36823 ft 432 kts 297°
2026-05-01 11:12 50.28987 6.51875 35701 ft 440 kts 297°
2026-05-01 11:12 50.30365 6.47560 34722 ft 445 kts 297°
2026-05-01 11:12 50.31754 6.43212 33901 ft 448 kts 297°
2026-05-01 11:13 50.33141 6.38872 33126 ft 449 kts 297°
2026-05-01 11:13 50.34462 6.34737 32384 ft 450 kts 297°
2026-05-01 11:13 50.35902 6.30218 31549 ft 452 kts 297°
2026-05-01 11:13 50.37294 6.25845 30711 ft 454 kts 297°
2026-05-01 11:14 50.38669 6.21525 29846 ft 456 kts 297°
2026-05-01 11:14 50.40080 6.17091 28935 ft 458 kts 297°
2026-05-01 11:14 50.41512 6.12587 27984 ft 460 kts 297°
2026-05-01 11:14 50.42919 6.08155 27181 ft 461 kts 297°
2026-05-01 11:15 50.44379 6.03551 26533 ft 478 kts 297°
2026-05-01 11:15 50.45836 5.98947 25965 ft 479 kts 297°
2026-05-01 11:15 50.47310 5.94281 25409 ft 477 kts 297°
2026-05-01 11:15 50.48751 5.89704 24849 ft 474 kts 297°
2026-05-01 11:16 50.50209 5.85066 24282 ft 471 kts 297°
2026-05-01 11:16 50.51649 5.80476 23631 ft 465 kts 297°
2026-05-01 11:16 50.53044 5.76022 22908 ft 461 kts 297°
2026-05-01 11:16 50.54461 5.71492 22144 ft 457 kts 297°
2026-05-01 11:17 50.55863 5.67000 21256 ft 456 kts 296°
2026-05-01 11:17 50.57212 5.62672 20437 ft 455 kts 296°
2026-05-01 11:17 50.58581 5.58267 19686 ft 451 kts 296°
2026-05-01 11:17 50.59957 5.53834 18931 ft 448 kts 296°
2026-05-01 11:18 50.61316 5.49445 18305 ft 441 kts 296°
2026-05-01 11:18 50.62654 5.45115 17742 ft 434 kts 296°
2026-05-01 11:18 50.63955 5.40893 17203 ft 427 kts 295°
2026-05-01 11:18 50.65236 5.36733 16678 ft 420 kts 295°
2026-05-01 11:19 50.66421 5.32873 16203 ft 414 kts 294°
2026-05-01 11:19 50.67653 5.28843 15709 ft 408 kts 294°
2026-05-01 11:19 50.68835 5.24972 15250 ft 402 kts 294°
2026-05-01 11:19 50.70052 5.20988 14775 ft 395 kts 294°
2026-05-01 11:20 50.71240 5.17094 14341 ft 389 kts 294°
2026-05-01 11:20 50.72406 5.13264 13914 ft 383 kts 294°
2026-05-01 11:20 50.73561 5.09469 13485 ft 378 kts 294°
2026-05-01 11:20 50.74612 5.06009 13101 ft 372 kts 294°
2026-05-01 11:21 50.75703 5.02410 12713 ft 367 kts 294°
2026-05-01 11:21 50.76757 4.98931 12381 ft 360 kts 294°
2026-05-01 11:21 50.77821 4.95415 12042 ft 353 kts 294°
2026-05-01 11:21 50.78867 4.91951 11719 ft 347 kts 294°
2026-05-01 11:22 50.79895 4.88542 11392 ft 341 kts 294°
2026-05-01 11:22 50.80920 4.85137 11034 ft 336 kts 294°
2026-05-01 11:22 50.81916 4.81821 10698 ft 331 kts 294°
2026-05-01 11:22 50.82892 4.78572 10362 ft 326 kts 294°
2026-05-01 11:23 50.83851 4.75375 10030 ft 321 kts 294°
2026-05-01 11:23 50.84804 4.72192 9682 ft 316 kts 293°
2026-05-01 11:23 50.85715 4.69139 9373 ft 312 kts 293°
2026-05-01 11:23 50.86422 4.66770 9133 ft 308 kts 293°
2026-05-01 11:24 50.87469 4.63264 8780 ft 303 kts 293°
2026-05-01 11:24 50.88378 4.60219 8473 ft 298 kts 293°
2026-05-01 11:24 50.90032 4.54413 7836 ft 291 kts 287°
2026-05-01 11:25 50.90539 4.51325 7471 ft 287 kts 277°
2026-05-01 11:25 50.91093 4.45149 6774 ft 283 kts 275°
2026-05-01 11:25 50.91345 4.42092 6421 ft 281 kts 275°
2026-05-01 11:26 50.91608 4.38994 6048 ft 280 kts 276°
2026-05-01 11:26 50.92092 4.33444 5316 ft 267 kts 275°
2026-05-01 11:26 50.92317 4.30884 4884 ft 262 kts 275°
2026-05-01 11:27 50.92575 4.27944 4466 ft 253 kts 275°
2026-05-01 11:27 50.92661 4.25234 4090 ft 242 kts 256°
2026-05-01 11:27 50.92053 4.22877 3865 ft 221 kts 229°
2026-05-01 11:27 50.90986 4.21305 3653 ft 203 kts 206°
2026-05-01 11:28 50.89735 4.20559 3561 ft 183 kts 187°
2026-05-01 11:28 50.88516 4.20515 3298 ft 171 kts 169°
2026-05-01 11:28 50.87437 4.21036 3187 ft 160 kts 153°
2026-05-01 11:29 50.85553 4.23046 2972 ft 163 kts 135°
2026-05-01 11:29 50.84760 4.24347 2947 ft 164 kts 125°
2026-05-01 11:29 50.84777 4.27934 2939 ft 170 kts 75°
2026-05-01 11:30 50.85223 4.29595 2756 ft 163 kts 69°
2026-05-01 11:30 50.85715 4.31195 2427 ft 159 kts 68°
2026-05-01 11:30 50.86189 4.32756 2101 ft 155 kts 69°
2026-05-01 11:30 50.86640 4.34292 1776 ft 151 kts 70°
2026-05-01 11:31 50.87064 4.35759 1496 ft 141 kts 69°
2026-05-01 11:31 50.87460 4.37135 1302 ft 137 kts 70°
2026-05-01 11:31 50.87858 4.38517 1125 ft 136 kts 70°
2026-05-01 11:31 50.88251 4.39883 958 ft 136 kts 69°
2026-05-01 11:32 50.88620 4.41159 794 ft 136 kts 69°
2026-05-01 11:32 50.89028 4.42574 605 ft 135 kts 69°
2026-05-01 11:32 50.89427 4.43925 426 ft 135 kts 68°
2026-05-01 11:32 50.89808 4.45258 260 ft 133 kts 69°
2026-05-01 11:33 50.90187 4.46580 138 ft 124 kts 68°
2026-05-01 11:33 50.90485 4.47621 127 ft 80 kts 65°
2026-05-01 11:33 50.90646 4.48177 125 ft 29 kts 65°
2026-05-01 11:33 50.90630 4.48376 126 ft 17 kts 120°
2026-05-01 11:34 50.90595 4.48470 128 ft 8 kts 120°
2026-05-01 11:34 50.90565 4.48550 129 ft 8 kts 121°
2026-05-01 11:34 50.90523 4.48607 130 ft 8 kts 153°
2026-05-01 11:34 50.90473 4.48644 131 ft 7 kts 155°
2026-05-01 11:35 50.90439 4.48669 132 ft 1 kts 155°
2026-05-01 11:35 50.90438 4.48670 132 ft 0 kts 155°